Погода в Краснохолмском

Россия / Республика Башкортостан     55°59′00″N   55°02′55″E
темп.,
°C
ветер,
м/с
пор.,
м/с
влажн.,
%
обл.,
%
осадки,
мм/ч
давл.,
гПа
погр.,
м
22 апреля, чт
чт2223:00+8ююв4135099 0.0 1028327
02:00+8ю61351100 0.0 1028471
05:00+6ю61166100 0.0 1029843
08:00+5ю71380100 0.3 10281020
11:00+4ю71196100 0.9 1029903
14:00+5ю61191100 0.3 1030893
17:00+7юз3774100 0.4 1029431
20:00+6ю5890100 0.4 1029889
23 апреля, пт
пт2323:00+3ю61097100 1.0 1029509
02:00+3ю5897100 0.3 1029510
05:00+3ю4897100 0.4 1029376
08:00+3ююв3699100 0.0 1029306
11:00+4ююв3696100 0.0 1030396
14:00+8ююв337699 0.0 1029716
17:00+10юв4465100 0.1 10281001
20:00+8в3679100 0.0 1027194
24 апреля, сб
сб2423:00+5всв4891100 0.0 1026174
02:00+5в4890100 0.0 1024211
05:00+6юв2597100 0.1 1022149
08:00+6в3698100 0.6 1020243
11:00+6вюв4995100 1.1 1019443
14:00+7вюв4792100 1.1 1017900
17:00+7всв2493100 1.9 1016207
20:00+6в2293100 0.8 101443
25 апреля, вс
вс2523:00+6ю3594100 0.9 1013208
02:00+5ююв3795100 0.3 1013365
05:00+5ююв4797100 0.4 1012353
08:00+6юв5993100 0.0 1011419
11:00+9ююв91276100 0.0 10081041
14:00+7ююз7127999 3.8 10091139
17:00+9зюз8136042 4.1 10121762
20:00+8ююз596480 0.3 1013234
26 апреля, пн
пн2623:00+5ююз4117979 0.6 1015275
02:00+4ююз41087100 0.1 1015238
05:00+3ююз499294 0.1 1016189
08:00+5ююз4108281 0.1 1016443
11:00+9зюз710565 0.3 10161508
14:00+11зюз7103832 0.0 10162453
17:00+11зюз7838100 0.0 10162040
20:00+8зюз3453100 0.0 101686